Wind From: 11-12-2017 04:25 Until: 16:00 warning for: Wind Level: Orange info button

Power and phone distribution networks may be disrupted for relatively long periods., Roofs and chimneys can be damaged. , Tree branches may break. , Vehicles can be deported. , Traffic may be disrupted, particularly on secondary roads in forest areas. Limit your trips. , Limit your speed in highway driving, especially if you drive a vehicle or hitch sensitive to wind. , Do not go for walks in forests or along the coast., In town, be vigilant against possible falling objects., Do not work on roofs and do not touch any electrical line fallen on the ground., Store or secure sensitive objects to wind or likely to be damaged., Always install power generators outside buildings. 


Meteo18 Weather Cam more information Meteo18 Weather Cam


Thunder radar more information blitzortung!


Rain radar more information rain snow radar


Visit our other weather sites:

Template documentation
and downloads

And another site



Weather Underground History page Text

Daily Summary for May 7, 2017 Units:  Metric    English   Both
« Previous Day
Next Day »
Daily Weekly Monthly Yearly Custom
  High: Low: Average:
Temperature: 15.3 °C 9.8 °C 12.2 °C
Dew Point: 10.6 °C 8.7 °C 9.7 °C
Humidity: 95 % 66 % 85 %
Wind Speed: 25.7 km/h 0.0 km/h 7 km/h
Wind Gust: 33.8 km/h - -
Wind:- - West
Pressure: 1021.9 hPa 1015.8 hPa -
Precipitation: 0.8 mm    
Historical Graphs
 
 
Tabular Data for May 7, 2017
Time Temperature Dew Point Pressure Wind Wind Speed Wind Gust Humidity Rainfall Rate (Hourly)
00:02 12.2 °C 10.4 °C 1015.8 hPa SW 6.4 km/h 32.2 km/h 89 % 0.0 mm
00:07 12.2 °C 10.4 °C 1015.8 hPa WSW 12.9 km/h 25.7 km/h 89 % 0.0 mm
00:12 12.2 °C 10.4 °C 1015.8 hPa SW 8.0 km/h 25.7 km/h 89 % 0.0 mm
00:17 12.2 °C 10.6 °C 1015.8 hPa SW 9.7 km/h 22.5 km/h 90 % 0.0 mm
00:22 12.1 °C 10.5 °C 1015.8 hPa WSW 11.3 km/h 22.5 km/h 90 % 0.0 mm
00:32 12.1 °C 10.5 °C 1016.1 hPa West 9.7 km/h 25.7 km/h 90 % 0.0 mm
00:37 12.1 °C 10.5 °C 1016.1 hPa WSW 17.7 km/h 30.6 km/h 90 % 0.0 mm
00:42 12.1 °C 10.5 °C 1016.1 hPa West 20.9 km/h 30.6 km/h 90 % 0.0 mm
00:47 12.0 °C 10.4 °C 1016.1 hPa SW 12.9 km/h 30.6 km/h 90 % 0.0 mm
00:52 11.9 °C 10.3 °C 1016.1 hPa West 20.9 km/h 25.7 km/h 90 % 0.0 mm
00:57 11.9 °C 10.3 °C 1016.1 hPa SW 8.0 km/h 27.4 km/h 90 % 0.0 mm
01:02 11.8 °C 10.2 °C 1016.5 hPa WSW 8.0 km/h 27.4 km/h 90 % 0.0 mm
01:07 11.8 °C 10.2 °C 1016.5 hPa SW 17.7 km/h 27.4 km/h 90 % 0.0 mm
01:12 11.7 °C 10.1 °C 1016.5 hPa WSW 9.7 km/h 33.8 km/h 90 % 0.0 mm
01:17 11.7 °C 10.1 °C 1016.5 hPa West 19.3 km/h 33.8 km/h 90 % 0.0 mm
01:22 11.7 °C 10.1 °C 1016.5 hPa WSW 19.3 km/h 27.4 km/h 90 % 0.0 mm
01:32 11.6 °C 10.0 °C 1016.5 hPa West 17.7 km/h 27.4 km/h 90 % 0.0 mm
01:37 11.6 °C 10.0 °C 1016.5 hPa WSW 11.3 km/h 27.4 km/h 90 % 0.0 mm
01:42 11.6 °C 10.0 °C 1016.5 hPa WSW 25.7 km/h 27.4 km/h 90 % 0.0 mm
01:47 11.6 °C 10.0 °C 1016.5 hPa SW 14.5 km/h 27.4 km/h 90 % 0.0 mm
01:52 11.6 °C 10.0 °C 1016.5 hPa West 17.7 km/h 27.4 km/h 90 % 0.0 mm
01:57 11.5 °C 9.9 °C 1016.5 hPa WSW 11.3 km/h 27.4 km/h 90 % 0.0 mm
02:02 11.5 °C 9.9 °C 1016.5 hPa WSW 17.7 km/h 22.5 km/h 90 % 0.0 mm
02:07 11.4 °C 9.8 °C 1016.5 hPa West 8.0 km/h 20.9 km/h 90 % 0.0 mm
02:12 11.4 °C 9.8 °C 1016.5 hPa SW 8.0 km/h 20.9 km/h 90 % 0.0 mm
02:17 11.4 °C 9.8 °C 1016.5 hPa WSW 14.5 km/h 20.9 km/h 90 % 0.0 mm
02:22 11.4 °C 9.8 °C 1016.5 hPa WSW 12.9 km/h 22.5 km/h 90 % 0.0 mm
02:27 11.4 °C 9.8 °C 1016.5 hPa WSW 17.7 km/h 22.5 km/h 90 % 0.0 mm
02:32 11.3 °C 9.7 °C 1016.5 hPa SW 12.9 km/h 22.5 km/h 90 % 0.0 mm
02:37 11.3 °C 9.7 °C 1016.5 hPa SW 14.5 km/h 25.7 km/h 90 % 0.0 mm
02:42 11.3 °C 9.7 °C 1016.5 hPa SSW 19.3 km/h 25.7 km/h 90 % 0.0 mm
02:47 11.3 °C 9.9 °C 1016.8 hPa West 6.4 km/h 25.7 km/h 91 % 0.0 mm
02:52 11.2 °C 9.8 °C 1016.8 hPa WSW 14.5 km/h 25.7 km/h 91 % 0.0 mm
02:57 11.2 °C 9.8 °C 1016.8 hPa WSW 20.9 km/h 25.7 km/h 91 % 0.0 mm
03:02 11.2 °C 9.8 °C 1016.8 hPa West 16.1 km/h 22.5 km/h 91 % 0.0 mm
03:07 11.2 °C 9.8 °C 1016.8 hPa WSW 6.4 km/h 24.1 km/h 91 % 0.0 mm
03:12 11.2 °C 9.8 °C 1016.8 hPa WSW 17.7 km/h 24.1 km/h 91 % 0.0 mm
03:17 11.2 °C 9.8 °C 1016.8 hPa West 12.9 km/h 24.1 km/h 91 % 0.0 mm
03:22 11.1 °C 9.7 °C 1016.8 hPa SW 8.0 km/h 27.4 km/h 91 % 0.0 mm
03:27 11.1 °C 9.7 °C 1016.8 hPa West 12.9 km/h 27.4 km/h 91 % 0.0 mm
03:32 11.1 °C 9.7 °C 1016.8 hPa SW 17.7 km/h 24.1 km/h 91 % 0.0 mm
03:42 11.1 °C 9.7 °C 1016.8 hPa West 9.7 km/h 27.4 km/h 91 % 0.0 mm
03:47 11.1 °C 9.7 °C 1016.8 hPa WSW 12.9 km/h 27.4 km/h 91 % 0.0 mm
03:52 11.1 °C 9.7 °C 1016.8 hPa West 16.1 km/h 20.9 km/h 91 % 0.0 mm
03:57 11.1 °C 9.7 °C 1016.8 hPa WSW 19.3 km/h 20.9 km/h 91 % 0.0 mm
04:02 11.1 °C 9.7 °C 1016.8 hPa SW 11.3 km/h 25.7 km/h 91 % 0.0 mm
04:07 11.1 °C 9.7 °C 1016.8 hPa WNW 12.9 km/h 27.4 km/h 91 % 0.0 mm
04:12 11.1 °C 9.7 °C 1016.8 hPa West 11.3 km/h 27.4 km/h 91 % 0.0 mm
04:17 11.1 °C 9.7 °C 1016.8 hPa WSW 16.1 km/h 27.4 km/h 91 % 0.0 mm
04:22 11.1 °C 9.7 °C 1017.2 hPa WSW 16.1 km/h 27.4 km/h 91 % 0.0 mm
04:27 11.1 °C 9.7 °C 1017.2 hPa West 9.7 km/h 27.4 km/h 91 % 0.0 mm
04:32 11.1 °C 9.7 °C 1017.2 hPa West 11.3 km/h 22.5 km/h 91 % 0.0 mm
04:37 11.1 °C 9.7 °C 1017.2 hPa WSW 9.7 km/h 22.5 km/h 91 % 0.0 mm
04:42 11.1 °C 9.7 °C 1017.2 hPa West 9.7 km/h 25.7 km/h 91 % 0.0 mm
04:47 11.1 °C 9.7 °C 1017.2 hPa West 6.4 km/h 25.7 km/h 91 % 0.0 mm
04:52 11.1 °C 9.7 °C 1017.2 hPa West 8.0 km/h 20.9 km/h 91 % 0.0 mm
04:57 11.1 °C 9.7 °C 1017.2 hPa West 9.7 km/h 20.9 km/h 91 % 0.0 mm
05:02 11.1 °C 9.7 °C 1017.2 hPa West 9.7 km/h 17.7 km/h 91 % 0.0 mm
05:07 11.1 °C 9.7 °C 1017.2 hPa WNW 8.0 km/h 17.7 km/h 91 % 0.0 mm
05:12 11.0 °C 9.6 °C 1017.5 hPa WNW 4.8 km/h 17.7 km/h 91 % 0.0 mm
05:17 11.0 °C 9.6 °C 1017.5 hPa West 6.4 km/h 17.7 km/h 91 % 0.0 mm
05:22 10.9 °C 9.7 °C 1017.5 hPa WSW 12.9 km/h 16.1 km/h 92 % 0.0 mm
05:32 10.9 °C 9.5 °C 1017.2 hPa WSW 9.7 km/h 19.3 km/h 91 % 0.0 mm
05:37 10.9 °C 9.5 °C 1017.5 hPa WSW 9.7 km/h 19.3 km/h 91 % 0.0 mm
05:42 10.9 °C 9.5 °C 1017.5 hPa WSW 16.1 km/h 19.3 km/h 91 % 0.0 mm
05:47 10.9 °C 9.5 °C 1017.5 hPa WSW 9.7 km/h 19.3 km/h 91 % 0.0 mm
05:52 10.9 °C 9.5 °C 1017.5 hPa WSW 9.7 km/h 19.3 km/h 91 % 0.0 mm
05:57 10.9 °C 9.5 °C 1017.5 hPa West 6.4 km/h 17.7 km/h 91 % 0.0 mm
06:02 10.9 °C 9.5 °C 1017.5 hPa WSW 9.7 km/h 19.3 km/h 91 % 0.0 mm
06:12 11.0 °C 9.6 °C 1017.5 hPa WSW 6.4 km/h 19.3 km/h 91 % 0.0 mm
06:17 10.9 °C 9.5 °C 1017.5 hPa West 4.8 km/h 19.3 km/h 91 % 0.0 mm
06:22 10.9 °C 9.5 °C 1017.8 hPa WSW 9.7 km/h 17.7 km/h 91 % 0.0 mm
06:27 11.0 °C 9.6 °C 1017.8 hPa SW 16.1 km/h 16.1 km/h 91 % 0.0 mm
06:32 11.0 °C 9.4 °C 1017.8 hPa WSW 12.9 km/h 12.9 km/h 90 % 0.0 mm
06:37 11.0 °C 9.4 °C 1017.8 hPa WNW 6.4 km/h 16.1 km/h 90 % 0.0 mm
06:42 11.1 °C 9.5 °C 1017.8 hPa West 6.4 km/h 16.1 km/h 90 % 0.0 mm
06:47 11.1 °C 9.5 °C 1017.8 hPa West 4.8 km/h 16.1 km/h 90 % 0.0 mm
06:52 11.1 °C 9.5 °C 1017.8 hPa West 4.8 km/h 16.1 km/h 90 % 0.0 mm
06:57 11.1 °C 9.5 °C 1017.8 hPa West 12.9 km/h 16.1 km/h 90 % 0.0 mm
07:02 11.1 °C 9.5 °C 1017.8 hPa WNW 16.1 km/h 16.1 km/h 90 % 0.0 mm
07:12 11.2 °C 9.5 °C 1017.8 hPa WNW 3.2 km/h 17.7 km/h 89 % 0.0 mm
07:17 11.2 °C 9.5 °C 1017.8 hPa West 9.7 km/h 20.9 km/h 89 % 0.0 mm
07:22 11.2 °C 9.5 °C 1018.2 hPa West 3.2 km/h 20.9 km/h 89 % 0.0 mm
07:32 11.2 °C 9.5 °C 1018.2 hPa WSW 6.4 km/h 11.3 km/h 89 % 0.0 mm
07:42 11.3 °C 9.6 °C 1018.5 hPa West 4.8 km/h 12.9 km/h 89 % 0.0 mm
07:47 11.3 °C 9.4 °C 1018.5 hPa WSW 6.4 km/h 12.9 km/h 88 % 0.0 mm
07:52 11.3 °C 9.4 °C 1018.5 hPa West 8.0 km/h 14.5 km/h 88 % 0.0 mm
08:02 11.3 °C 9.4 °C 1018.5 hPa West 11.3 km/h 14.5 km/h 88 % 0.0 mm
08:07 11.4 °C 9.5 °C 1018.5 hPa NW 8.0 km/h 16.1 km/h 88 % 0.0 mm
08:12 11.4 °C 9.5 °C 1018.5 hPa West 12.9 km/h 16.1 km/h 88 % 0.0 mm
08:17 11.5 °C 9.6 °C 1018.5 hPa WNW 4.8 km/h 19.3 km/h 88 % 0.0 mm
08:22 11.6 °C 9.7 °C 1018.8 hPa WNW 6.4 km/h 19.3 km/h 88 % 0.0 mm
08:32 11.7 °C 9.8 °C 1018.8 hPa WSW 8.0 km/h 17.7 km/h 88 % 0.0 mm
08:37 11.6 °C 9.7 °C 1018.8 hPa WNW 12.9 km/h 17.7 km/h 88 % 0.0 mm
08:42 11.7 °C 9.6 °C 1018.8 hPa WNW 8.0 km/h 19.3 km/h 87 % 0.0 mm
08:47 11.7 °C 9.8 °C 1018.8 hPa NW 6.4 km/h 19.3 km/h 88 % 0.0 mm
08:52 11.7 °C 9.6 °C 1019.2 hPa NNW 4.8 km/h 19.3 km/h 87 % 0.0 mm
08:57 11.7 °C 9.8 °C 1019.2 hPa WNW 3.2 km/h 19.3 km/h 88 % 0.0 mm
09:02 11.7 °C 9.6 °C 1019.2 hPa West 4.8 km/h 19.3 km/h 87 % 0.0 mm
09:07 11.8 °C 9.7 °C 1019.2 hPa West 6.4 km/h 24.1 km/h 87 % 0.0 mm
09:12 11.8 °C 9.7 °C 1019.2 hPa WNW 6.4 km/h 24.1 km/h 87 % 0.0 mm
09:17 11.9 °C 9.8 °C 1019.2 hPa West 6.4 km/h 19.3 km/h 87 % 0.0 mm
09:22 12.1 °C 10.0 °C 1019.5 hPa West 3.2 km/h 19.3 km/h 87 % 0.0 mm
09:27 11.9 °C 9.6 °C 1019.5 hPa West 11.3 km/h 16.1 km/h 86 % 0.0 mm
09:32 11.9 °C 9.8 °C 1019.5 hPa WNW 6.4 km/h 16.1 km/h 87 % 0.0 mm
09:37 11.9 °C 9.8 °C 1019.5 hPa WNW 6.4 km/h 16.1 km/h 87 % 0.0 mm
09:42 11.9 °C 9.8 °C 1019.5 hPa Calm   12.9 km/h 87 % 0.0 mm
09:47 11.8 °C 9.5 °C 1019.9 hPa WNW 9.7 km/h 14.5 km/h 86 % 0.0 mm
09:52 11.8 °C 9.5 °C 1019.9 hPa WNW 9.7 km/h 20.9 km/h 86 % 0.0 mm
09:57 11.7 °C 9.4 °C 1019.9 hPa West 8.0 km/h 20.9 km/h 86 % 0.0 mm
10:02 11.7 °C 9.6 °C 1019.9 hPa West 8.0 km/h 20.9 km/h 87 % 0.0 mm
10:12 11.7 °C 9.6 °C 1019.9 hPa West 1.6 km/h 20.9 km/h 87 % 0.0 mm
10:17 11.6 °C 9.3 °C 1019.9 hPa NNW 3.2 km/h 20.9 km/h 86 % 0.0 mm
10:22 11.6 °C 9.5 °C 1020.2 hPa NW 4.8 km/h 20.9 km/h 87 % 0.0 mm
10:27 11.6 °C 9.5 °C 1020.2 hPa SE 4.8 km/h 20.9 km/h 87 % 0.0 mm
10:32 11.5 °C 9.2 °C 1020.2 hPa WNW 6.4 km/h 20.9 km/h 86 % 0.0 mm
10:42 11.6 °C 9.3 °C 1020.2 hPa WNW 11.3 km/h 20.9 km/h 86 % 0.0 mm
10:47 11.6 °C 9.5 °C 1020.2 hPa WNW 3.2 km/h 20.9 km/h 87 % 0.0 mm
10:52 11.7 °C 9.4 °C 1020.2 hPa West 12.9 km/h 17.7 km/h 86 % 0.0 mm
10:57 11.7 °C 9.4 °C 1020.5 hPa NW 9.7 km/h 17.7 km/h 86 % 0.0 mm
11:02 11.8 °C 9.5 °C 1020.5 hPa WNW 1.6 km/h 17.7 km/h 86 % 0.0 mm
11:07 11.8 °C 9.5 °C 1020.5 hPa WNW 4.8 km/h 16.1 km/h 86 % 0.0 mm
11:12 11.8 °C 9.5 °C 1020.5 hPa WNW 9.7 km/h 16.1 km/h 86 % 0.0 mm
11:17 11.8 °C 9.5 °C 1020.5 hPa West 6.4 km/h 19.3 km/h 86 % 0.0 mm
11:22 11.8 °C 9.5 °C 1020.5 hPa WNW 9.7 km/h 19.3 km/h 86 % 0.0 mm
11:27 12.0 °C 9.6 °C 1020.5 hPa Calm   19.3 km/h 85 % 0.0 mm
11:32 12.2 °C 9.6 °C 1020.5 hPa West 3.2 km/h 16.1 km/h 84 % 0.0 mm
11:37 12.4 °C 9.8 °C 1020.5 hPa WNW 11.3 km/h 16.1 km/h 84 % 0.0 mm
11:42 12.6 °C 10.1 °C 1020.5 hPa Calm   16.1 km/h 85 % 0.0 mm
11:47 12.7 °C 10.1 °C 1020.5 hPa WNW 3.2 km/h 14.5 km/h 84 % 0.0 mm
11:52 12.9 °C 10.1 °C 1020.9 hPa NW 4.8 km/h 14.5 km/h 83 % 0.0 mm
11:57 13.1 °C 10.1 °C 1020.9 hPa Calm   14.5 km/h 82 % 0.0 mm
12:02 13.1 °C 9.9 °C 1020.9 hPa NNW 8.0 km/h 11.3 km/h 81 % 0.0 mm
12:07 12.8 °C 9.2 °C 1020.9 hPa WNW 9.7 km/h 14.5 km/h 79 % 0.0 mm
12:12 12.8 °C 9.2 °C 1020.9 hPa NNW 6.4 km/h 14.5 km/h 79 % 0.0 mm
12:17 12.9 °C 9.3 °C 1020.9 hPa WNW 3.2 km/h 12.9 km/h 79 % 0.0 mm
12:22 13.1 °C 9.5 °C 1020.9 hPa NW 8.0 km/h 12.9 km/h 79 % 0.0 mm
12:27 13.1 °C 9.5 °C 1020.9 hPa NE 6.4 km/h 12.9 km/h 79 % 0.0 mm
12:32 13.1 °C 9.7 °C 1020.9 hPa WNW 3.2 km/h 12.9 km/h 80 % 0.0 mm
12:42 13.2 °C 9.3 °C 1020.9 hPa West 8.0 km/h 14.5 km/h 77 % 0.0 mm
12:47 13.3 °C 9.5 °C 1020.9 hPa NW 3.2 km/h 14.5 km/h 78 % 0.0 mm
12:52 13.4 °C 9.4 °C 1021.2 hPa NNW 1.6 km/h 16.1 km/h 77 % 0.0 mm
12:57 13.5 °C 9.4 °C 1021.2 hPa NNW 14.5 km/h 16.1 km/h 76 % 0.0 mm
13:02 13.5 °C 9.4 °C 1021.2 hPa WNW 6.4 km/h 19.3 km/h 76 % 0.0 mm
13:07 13.4 °C 9.1 °C 1021.2 hPa NW 4.8 km/h 19.3 km/h 75 % 0.0 mm
13:12 13.4 °C 9.3 °C 1021.2 hPa NNW 12.9 km/h 19.3 km/h 76 % 0.0 mm
13:17 13.6 °C 9.4 °C 1021.2 hPa North 3.2 km/h 16.1 km/h 76 % 0.0 mm
13:22 13.7 °C 9.3 °C 1021.2 hPa NW 6.4 km/h 12.9 km/h 75 % 0.0 mm
13:27 13.9 °C 9.3 °C 1021.2 hPa NW 4.8 km/h 17.7 km/h 74 % 0.0 mm
13:32 13.8 °C 9.0 °C 1021.2 hPa WNW 8.0 km/h 17.7 km/h 73 % 0.0 mm
13:37 13.8 °C 9.2 °C 1021.2 hPa North 12.9 km/h 20.9 km/h 74 % 0.0 mm
13:42 14.1 °C 9.5 °C 1021.2 hPa WNW 12.9 km/h 20.9 km/h 74 % 0.0 mm
13:47 14.0 °C 9.0 °C 1021.2 hPa WNW 9.7 km/h 22.5 km/h 72 % 0.0 mm
13:52 13.9 °C 8.9 °C 1021.2 hPa NW 12.9 km/h 22.5 km/h 72 % 0.0 mm
13:57 14.1 °C 9.1 °C 1021.2 hPa NW 8.0 km/h 22.5 km/h 72 % 0.0 mm
14:02 14.4 °C 9.4 °C 1021.2 hPa NW 6.4 km/h 19.3 km/h 72 % 0.0 mm
14:12 14.1 °C 9.5 °C 1021.2 hPa West 3.2 km/h 17.7 km/h 74 % 0.0 mm
14:17 14.1 °C 9.3 °C 1021.2 hPa WNW 9.7 km/h 17.7 km/h 73 % 0.0 mm
14:22 14.1 °C 9.3 °C 1021.2 hPa NW 9.7 km/h 16.1 km/h 73 % 0.0 mm
14:27 14.3 °C 9.3 °C 1021.2 hPa WNW 11.3 km/h 16.1 km/h 72 % 0.0 mm
14:32 14.2 °C 9.0 °C 1021.2 hPa WNW 20.9 km/h 20.9 km/h 71 % 0.0 mm
14:42 13.9 °C 8.9 °C 1021.2 hPa NW 8.0 km/h 20.9 km/h 72 % 0.0 mm
14:52 14.0 °C 9.4 °C 1021.2 hPa NW 3.2 km/h 20.9 km/h 74 % 0.0 mm
14:57 13.9 °C 9.1 °C 1021.2 hPa WNW 4.8 km/h 16.1 km/h 73 % 0.0 mm
15:02 13.8 °C 9.2 °C 1021.2 hPa WNW 11.3 km/h 16.1 km/h 74 % 0.0 mm
15:12 14.0 °C 9.4 °C 1021.2 hPa NNW 4.8 km/h 17.7 km/h 74 % 0.0 mm
15:17 14.4 °C 9.6 °C 1021.2 hPa NW 9.7 km/h 17.7 km/h 73 % 0.0 mm
15:22 14.7 °C 9.5 °C 1021.2 hPa WNW 14.5 km/h 16.1 km/h 71 % 0.0 mm
15:27 14.9 °C 9.9 °C 1021.2 hPa NNE 9.7 km/h 16.1 km/h 72 % 0.0 mm
15:32 15.0 °C 9.1 °C 1021.2 hPa WSW 16.1 km/h 17.7 km/h 68 % 0.0 mm
15:37 15.0 °C 8.7 °C 1021.2 hPa NW 3.2 km/h 19.3 km/h 66 % 0.0 mm
15:47 15.1 °C 8.8 °C 1020.9 hPa WNW 17.7 km/h 19.3 km/h 66 % 0.0 mm
15:57 15.3 °C 9.2 °C 1020.9 hPa North 4.8 km/h 17.7 km/h 67 % 0.0 mm
16:02 15.1 °C 9.5 °C 1020.9 hPa WNW 3.2 km/h 17.7 km/h 69 % 0.0 mm
16:12 14.4 °C 8.8 °C 1020.9 hPa WNW 8.0 km/h 16.1 km/h 69 % 0.0 mm
16:17 14.3 °C 8.9 °C 1020.9 hPa NW 4.8 km/h 16.1 km/h 70 % 0.0 mm
16:22 14.2 °C 9.0 °C 1020.9 hPa West 1.6 km/h 16.1 km/h 71 % 0.0 mm
16:27 14.1 °C 8.9 °C 1020.9 hPa Calm   16.1 km/h 71 % 0.0 mm
16:32 14.0 °C 9.0 °C 1020.9 hPa NW 8.0 km/h 12.9 km/h 72 % 0.0 mm
16:37 14.0 °C 9.2 °C 1020.9 hPa NNW 3.2 km/h 9.7 km/h 73 % 0.0 mm
16:42 13.9 °C 9.3 °C 1020.9 hPa NW 4.8 km/h 11.3 km/h 74 % 0.0 mm
16:47 14.0 °C 9.4 °C 1020.9 hPa West 3.2 km/h 11.3 km/h 74 % 0.0 mm
16:52 14.0 °C 9.2 °C 1020.9 hPa NNE 3.2 km/h 11.3 km/h 73 % 0.0 mm
16:57 14.0 °C 9.4 °C 1020.9 hPa NW 8.0 km/h 9.7 km/h 74 % 0.0 mm
17:02 14.0 °C 9.4 °C 1020.9 hPa WNW 3.2 km/h 12.9 km/h 74 % 0.0 mm
17:07 13.9 °C 9.3 °C 1020.9 hPa WNW 1.6 km/h 12.9 km/h 74 % 0.0 mm
17:12 13.9 °C 9.5 °C 1020.9 hPa NNW 9.7 km/h 12.9 km/h 75 % 0.0 mm
17:17 13.8 °C 9.2 °C 1020.9 hPa WNW 4.8 km/h 11.3 km/h 74 % 0.0 mm
17:22 13.7 °C 9.3 °C 1020.9 hPa NNW 6.4 km/h 11.3 km/h 75 % 0.0 mm
17:32 13.6 °C 9.4 °C 1020.9 hPa NW 1.6 km/h 11.3 km/h 76 % 0.0 mm
17:37 13.5 °C 9.5 °C 1020.9 hPa NNW 6.4 km/h 11.3 km/h 77 % 0.0 mm
17:42 13.4 °C 9.4 °C 1020.9 hPa WNW 8.0 km/h 9.7 km/h 77 % 0.0 mm
17:47 13.4 °C 9.4 °C 1020.9 hPa NW 3.2 km/h 9.7 km/h 77 % 0.0 mm
17:52 13.4 °C 9.4 °C 1020.9 hPa WNW 4.8 km/h 9.7 km/h 77 % 0.0 mm
17:57 13.4 °C 9.4 °C 1020.9 hPa West 4.8 km/h 9.7 km/h 77 % 0.0 mm
18:02 13.4 °C 9.4 °C 1020.9 hPa West 1.6 km/h 8.0 km/h 77 % 0.0 mm
18:07 13.4 °C 9.4 °C 1020.9 hPa WNW 3.2 km/h 9.7 km/h 77 % 0.0 mm
18:12 13.4 °C 9.4 °C 1020.9 hPa WNW 1.6 km/h 9.7 km/h 77 % 0.0 mm
18:17 13.4 °C 9.6 °C 1020.9 hPa Calm   6.4 km/h 78 % 0.0 mm
18:22 13.4 °C 9.6 °C 1020.9 hPa West 1.6 km/h 6.4 km/h 78 % 0.0 mm
18:27 13.4 °C 9.4 °C 1020.9 hPa WNW 4.8 km/h 9.7 km/h 77 % 0.0 mm
18:37 13.4 °C 9.6 °C 1020.9 hPa Calm   9.7 km/h 78 % 0.0 mm
18:42 13.3 °C 9.5 °C 1020.9 hPa West 1.6 km/h 4.8 km/h 78 % 0.0 mm
18:47 13.3 °C 9.5 °C 1020.9 hPa WNW 1.6 km/h 4.8 km/h 78 % 0.0 mm
18:52 13.2 °C 9.4 °C 1020.9 hPa WSW 1.6 km/h 4.8 km/h 78 % 0.0 mm
18:57 13.2 °C 9.6 °C 1021.2 hPa WNW 1.6 km/h 4.8 km/h 79 % 0.0 mm
19:02 13.1 °C 9.7 °C 1021.2 hPa SW 3.2 km/h 4.8 km/h 80 % 0.0 mm
19:07 13.0 °C 9.6 °C 1021.2 hPa Calm   6.4 km/h 80 % 0.0 mm
19:12 12.9 °C 9.7 °C 1021.2 hPa NW 1.6 km/h 6.4 km/h 81 % 0.0 mm
19:17 12.9 °C 9.7 °C 1021.2 hPa Calm   6.4 km/h 81 % 0.0 mm
19:27 12.7 °C 9.5 °C 1021.2 hPa NW 6.4 km/h 19.3 km/h 81 % 0.0 mm
19:32 12.6 °C 9.6 °C 1021.2 hPa WNW 1.6 km/h 19.3 km/h 82 % 0.0 mm
19:37 12.4 °C 9.8 °C 1021.2 hPa NE 4.8 km/h 19.3 km/h 84 % 0.0 mm
19:42 12.2 °C 10.1 °C 1021.2 hPa NE 1.6 km/h 14.5 km/h 87 % 0.0 mm
19:52 12.0 °C 10.2 °C 1021.2 hPa Calm   9.7 km/h 89 % 0.0 mm
19:57 12.0 °C 10.2 °C 1021.2 hPa Calm   4.8 km/h 89 % 0.0 mm
20:02 11.9 °C 10.1 °C 1021.2 hPa Calm   1.6 km/h 89 % 0.0 mm
20:07 11.9 °C 10.1 °C 1021.2 hPa Calm   1.6 km/h 89 % 0.0 mm
20:12 11.9 °C 10.1 °C 1021.2 hPa NNE 1.6 km/h 3.2 km/h 89 % 0.0 mm
20:17 11.9 °C 10.1 °C 1021.2 hPa Calm   3.2 km/h 89 % 0.0 mm
20:22 11.9 °C 10.1 °C 1021.2 hPa ENE 1.6 km/h 3.2 km/h 89 % 0.0 mm
20:27 12.0 °C 10.2 °C 1021.2 hPa Calm   3.2 km/h 89 % 0.0 mm
20:32 12.0 °C 10.2 °C 1021.2 hPa Calm   1.6 km/h 89 % 0.0 mm
20:42 11.9 °C 10.3 °C 1021.2 hPa Calm     90 % 0.0 mm
20:47 11.8 °C 10.2 °C 1021.6 hPa Calm     90 % 0.0 mm
20:52 11.8 °C 10.2 °C 1021.6 hPa Calm   1.6 km/h 90 % 0.0 mm
20:57 11.8 °C 10.2 °C 1021.6 hPa Calm   1.6 km/h 90 % 0.0 mm
21:02 11.8 °C 10.2 °C 1021.6 hPa Calm     90 % 0.0 mm
21:07 11.7 °C 10.3 °C 1021.6 hPa Calm     91 % 0.0 mm
21:12 11.7 °C 10.3 °C 1021.6 hPa Calm     91 % 0.0 mm
21:17 11.7 °C 10.3 °C 1021.6 hPa Calm   1.6 km/h 91 % 0.0 mm
21:22 11.6 °C 10.2 °C 1021.6 hPa Calm   1.6 km/h 91 % 0.0 mm
21:32 11.6 °C 10.3 °C 1021.6 hPa Calm   1.6 km/h 92 % 0.3 mm
21:37 11.6 °C 10.3 °C 1021.6 hPa WNW 3.2 km/h 3.2 km/h 92 % 0.3 mm
21:42 11.4 °C 10.1 °C 1021.6 hPa Calm   6.4 km/h 92 % 0.5 mm
21:47 11.4 °C 10.1 °C 1021.6 hPa WNW 1.6 km/h 6.4 km/h 92 % 0.5 mm
21:57 11.4 °C 10.1 °C 1021.9 hPa Calm   3.2 km/h 92 % 0.8 mm
22:02 11.3 °C 10.0 °C 1021.9 hPa Calm   3.2 km/h 92 % 0.8 mm
22:07 11.3 °C 10.2 °C 1021.9 hPa Calm   1.6 km/h 93 % 0.8 mm
22:12 11.3 °C 10.2 °C 1021.9 hPa Calm   1.6 km/h 93 % 0.8 mm
22:22 11.2 °C 10.1 °C 1021.9 hPa Calm     93 % 0.8 mm
22:27 11.1 °C 10.0 °C 1021.9 hPa Calm   1.6 km/h 93 % 0.5 mm
22:37 11.1 °C 10.2 °C 1021.9 hPa Calm   1.6 km/h 94 % 0.5 mm
22:42 11.0 °C 10.1 °C 1021.9 hPa Calm   1.6 km/h 94 % 0.5 mm
22:47 10.9 °C 10.0 °C 1021.9 hPa Calm   1.6 km/h 94 % 0.3 mm
22:52 10.9 °C 10.0 °C 1021.9 hPa Calm   3.2 km/h 94 % 0.3 mm
22:57 10.8 °C 9.9 °C 1021.9 hPa Calm   3.2 km/h 94 % 0.0 mm
23:02 10.7 °C 9.8 °C 1021.9 hPa Calm   3.2 km/h 94 % 0.0 mm
23:07 10.7 °C 9.8 °C 1021.9 hPa Calm     94 % 0.0 mm
23:12 10.7 °C 9.8 °C 1021.9 hPa Calm   1.6 km/h 94 % 0.0 mm
23:17 10.6 °C 9.7 °C 1021.9 hPa Calm   1.6 km/h 94 % 0.0 mm
23:22 10.4 °C 9.5 °C 1021.9 hPa Calm   1.6 km/h 94 % 0.0 mm
23:32 10.3 °C 9.4 °C 1021.9 hPa Calm   1.6 km/h 94 % 0.0 mm
23:37 10.2 °C 9.3 °C 1021.9 hPa Calm     94 % 0.0 mm
23:42 10.2 °C 9.4 °C 1021.9 hPa Calm   1.6 km/h 95 % 0.0 mm
23:47 10.1 °C 9.3 °C 1021.9 hPa Calm   1.6 km/h 95 % 0.0 mm
23:52 10.0 °C 9.1 °C 1021.9 hPa Calm   1.6 km/h 94 % 0.0 mm
23:57 9.8 °C 9.0 °C 1021.9 hPa Calm     95 % 0.0 mm
Meteo18
Compliments of Weather Underground - 4 mb

Script developed by  Jim McMurry - jmcmurry@mwt.net Adapted for the template by  Wim van der Kuil - Leuven-Template.eu

You find our weather info also at:

European Weather Network

Weather Underground

Equipment we use:

Weather-station
Davis Vue

Weather-program
Meteohub

Weather-server
Raspberry PI 2 B+

Provider
1 and 1

Davis Vue

Meteohub

Raspberry PI 2 B+

1 and 1